,,,PA_Meas_PMT16A,,PR_Meas_QMR101_102,,RH_Meas_QMH101,,SR_Meas_QMS101,,TA_Meas_QMH101,,GenWind,,GenWind,
date,time,status,PA,status,PR,status,RH,status,SR,status,TA,status,DirAvg,status,SpdAvg,
2012-06-04, 00:00:04,VALID,998.752,VALID,0,VALID,89.6786,VALID,0,VALID,24.6928,VALID,67,VALID,0.919141,
2012-06-04, 00:01:04,VALID,998.71,VALID,0,VALID,89.6251,VALID,0,VALID,24.7337,VALID,67,VALID,1.12695,
2012-06-04, 00:02:04,VALID,998.755,VALID,0,VALID,89.114,VALID,0,VALID,24.7532,VALID,82,VALID,0.8375,
2012-06-04, 00:03:04,VALID,998.713,VALID,0,VALID,89.0224,VALID,0,VALID,24.796,VALID,82,VALID,0.526172,
2012-06-04, 00:04:04,VALID,998.71,VALID,0,VALID,88.7859,VALID,0,VALID,24.7746,VALID,82,VALID,0.701563,
2012-06-04, 00:05:04,VALID,998.725,VALID,0,VALID,88.1145,VALID,0,VALID,24.7941,VALID,96,VALID,0.869922,
2012-06-04, 00:06:04,VALID,998.72,VALID,0,VALID,87.9848,VALID,0,VALID,24.8332,VALID,66,VALID,1.03398,
2012-06-04, 00:07:04,VALID,998.743,VALID,0,VALID,88.8393,VALID,0,VALID,24.8722,VALID,62,VALID,0.892969,
2012-06-04, 00:08:04,VALID,998.736,VALID,0,VALID,89.4115,VALID,0,VALID,24.8527,VALID,62,VALID,0.836328,
2012-06-04, 00:09:04,VALID,998.747,VALID,0,VALID,89.8998,VALID,0,VALID,24.7941,VALID,52,VALID,0.689062,
2012-06-04, 00:10:04,VALID,998.782,VALID,0,VALID,90.3576,VALID,0,VALID,24.7551,VALID,52,VALID,0.754687,
2012-06-04, 00:11:04,VALID,998.755,VALID,0,VALID,90.7238,VALID,0,VALID,24.6965,VALID,52,VALID,0.577344,
2012-06-04, 00:12:04,VALID,998.743,VALID,0,VALID,91.0366,VALID,0,VALID,24.6361,VALID,52,VALID,0.438281,
2012-06-04, 00:13:04,VALID,998.766,VALID,0,VALID,91.2884,VALID,0,VALID,24.5989,VALID,52,VALID,0.515234,
2012-06-04, 00:14:04,VALID,998.724,VALID,0,VALID,91.4791,VALID,0,VALID,24.5599,VALID,59,VALID,1.06875,
2012-06-04, 00:15:04,VALID,998.756,VALID,0,VALID,91.586,VALID,0,VALID,24.5209,VALID,68,VALID,0.870703,
2012-06-04, 00:16:04,VALID,998.769,VALID,0,VALID,91.6012,VALID,0,VALID,24.5013,VALID,68,VALID,0.661719,
2012-06-04, 00:17:04,VALID,998.762,VALID,0,VALID,91.6241,VALID,0,VALID,24.5013,VALID,68,VALID,0.417969,
2012-06-04, 00:18:04,VALID,998.786,VALID,0,VALID,91.6241,VALID,0,VALID,24.4818,VALID,68,VALID,0.298438,
2012-06-04, 00:19:04,VALID,998.768,VALID,0,VALID,91.6928,VALID,0,VALID,24.4818,VALID,68,VALID,0.164453,
2012-06-04, 00:20:04,VALID,998.747,VALID,0,VALID,91.8377,VALID,0,VALID,24.4623,VALID,68,VALID,0.115234,
2012-06-04, 00:21:04,VALID,998.734,VALID,0,VALID,91.9598,VALID,0,VALID,24.4623,VALID,68,VALID,0.65625,
2012-06-04, 00:22:04,VALID,998.748,VALID,0,VALID,91.4257,VALID,0,VALID,24.4428,VALID,68,VALID,1.02656,
2012-06-04, 00:23:04,VALID,998.721,VALID,0,VALID,90.4568,VALID,0,VALID,24.5013,VALID,71,VALID,1.175,
2012-06-04, 00:24:04,VALID,998.718,VALID,0,VALID,89.5031,VALID,0,VALID,24.6184,VALID,71,VALID,1.11875,
2012-06-04, 00:25:04,VALID,998.68,VALID,0,VALID,88.9614,VALID,0,VALID,24.7356,VALID,71,VALID,0.921484,
2012-06-04, 00:26:04,VALID,998.681,VALID,0,VALID,88.8469,VALID,0,VALID,24.7746,VALID,71,VALID,0.470703,
2012-06-04, 00:27:04,VALID,998.686,VALID,0,VALID,89.6099,VALID,0,VALID,24.7922,VALID,38,VALID,0.834375,
2012-06-04, 00:28:04,VALID,998.698,VALID,0,VALID,90.35,VALID,0,VALID,24.7941,VALID,34,VALID,0.529688,
2012-06-04, 00:29:04,VALID,998.682,VALID,0,VALID,90.7543,VALID,0,VALID,24.7551,VALID,34,VALID,0.645703,
2012-06-04, 00:30:04,VALID,998.67,VALID,0,VALID,91.1358,VALID,0,VALID,24.6965,VALID,34,VALID,0.645703,
2012-06-04, 00:31:04,VALID,998.681,VALID,0,VALID,91.5173,VALID,0,VALID,24.6575,VALID,34,VALID,0.590625,
2012-06-04, 00:32:04,VALID,998.669,VALID,0,VALID,91.7233,VALID,0,VALID,24.6184,VALID,34,VALID,0.459766,
2012-06-04, 00:33:04,VALID,998.647,VALID,0,VALID,91.9064,VALID,0.104696,VALID,24.5775,VALID,34,VALID,0.446875,
2012-06-04, 00:34:04,VALID,998.667,VALID,0,VALID,92.0514,VALID,0.104696,VALID,24.558,VALID,34,VALID,0.420703,
2012-06-04, 00:35:04,VALID,998.622,VALID,0,VALID,92.0743,VALID,0,VALID,24.558,VALID,34,VALID,0.578125,
2012-06-04, 00:36:04,VALID,998.642,VALID,0,VALID,92.0361,VALID,0,VALID,24.5599,VALID,34,VALID,0.43125,
2012-06-04, 00:37:04,VALID,998.578,VALID,0,VALID,92.0361,VALID,0.104696,VALID,24.4976,VALID,34,VALID,0.384375,
2012-06-04, 00:38:04,VALID,998.594,VALID,0,VALID,91.9827,VALID,0,VALID,24.5385,VALID,34,VALID,0.239063,
2012-06-04, 00:39:04,VALID,998.599,VALID,0,VALID,91.7462,VALID,0,VALID,24.519,VALID,34,VALID,0.101172,
2012-06-04, 00:40:04,VALID,998.575,VALID,0,VALID,91.647,VALID,0,VALID,24.5171,VALID,34,VALID,0,
2012-06-04, 00:41:04,VALID,998.57,VALID,0,VALID,91.5402,VALID,0.104696,VALID,24.519,VALID,34,VALID,0,
2012-06-04, 00:42:04,VALID,998.577,VALID,0,VALID,91.5173,VALID,0.104696,VALID,24.5385,VALID,34,VALID,0.0148437,
2012-06-04, 00:43:04,VALID,998.558,VALID,0,VALID,91.0519,VALID,0,VALID,24.5385,VALID,34,VALID,0.191797,
2012-06-04, 00:44:04,VALID,998.559,VALID,0,VALID,90.6933,VALID,0.104696,VALID,24.5385,VALID,34,VALID,0,
2012-06-04, 00:45:04,VALID,998.569,VALID,0,VALID,90.5712,VALID,0,VALID,24.5385,VALID,34,VALID,0,
2012-06-04, 00:46:04,VALID,998.564,VALID,0,VALID,90.5483,VALID,0.104696,VALID,24.5385,VALID,34,VALID,0.107031,
2012-06-04, 00:47:04,VALID,998.548,VALID,0,VALID,90.5331,VALID,0.104696,VALID,24.5385,VALID,34,VALID,0.133594,
2012-06-04, 00:48:04,VALID,998.565,VALID,0,VALID,90.4415,VALID,0,VALID,24.5794,VALID,34,VALID,0.141406,
2012-06-04, 00:49:04,VALID,998.57,VALID,0,VALID,90.2584,VALID,0,VALID,24.5794,VALID,34,VALID,0.153906,
2012-06-04, 00:50:04,VALID,998.561,VALID,0,VALID,90.1058,VALID,0,VALID,24.6184,VALID,34,VALID,0.149219,
2012-06-04, 00:51:04,VALID,998.555,VALID,0,VALID,89.9837,VALID,0,VALID,24.6361,VALID,41,VALID,0.16875,
2012-06-04, 00:52:04,VALID,998.528,VALID,0,VALID,89.8693,VALID,0,VALID,24.677,VALID,41,VALID,0,
2012-06-04, 00:53:04,VALID,998.531,VALID,0,VALID,89.8998,VALID,0,VALID,24.6965,VALID,41,VALID,0,
2012-06-04, 00:54:04,VALID,998.521,VALID,0,VALID,89.9532,VALID,0,VALID,24.6751,VALID,41,VALID,0.178906,
2012-06-04, 00:55:04,VALID,998.536,VALID,0,VALID,90.205,VALID,0,VALID,24.7142,VALID,41,VALID,0.0851562,
2012-06-04, 00:56:04,VALID,998.497,VALID,0,VALID,89.8846,VALID,0,VALID,24.716,VALID,41,VALID,0.0960938,
2012-06-04, 00:57:04,VALID,998.513,VALID,0,VALID,89.5489,VALID,0,VALID,24.716,VALID,41,VALID,0.233203,
2012-06-04, 00:58:04,VALID,998.526,VALID,0,VALID,89.5031,VALID,0,VALID,24.7551,VALID,41,VALID,0.0660156,
2012-06-04, 00:59:04,VALID,998.519,VALID,0,VALID,89.3734,VALID,0,VALID,24.7746,VALID,41,VALID,0.352734,
2012-06-04, 01:00:04,VALID,998.478,VALID,0,VALID,89.3047,VALID,0,VALID,24.7941,VALID,41,VALID,0.485156,
2012-06-04, 01:01:04,VALID,998.474,VALID,0,VALID,88.9385,VALID,0,VALID,24.7941,VALID,41,VALID,0.471094,
2012-06-04, 01:02:04,VALID,998.474,VALID,0,VALID,89.0606,VALID,0,VALID,24.8136,VALID,40,VALID,0.594922,
2012-06-04, 01:03:04,VALID,998.48,VALID,0,VALID,88.908,VALID,0,VALID,24.8332,VALID,40,VALID,0.537891,
2012-06-04, 01:04:04,VALID,998.481,VALID,0,VALID,88.351,VALID,0,VALID,24.8332,VALID,40,VALID,0.64375,
2012-06-04, 01:05:04,VALID,998.5,VALID,0,VALID,88.2594,VALID,0,VALID,24.8313,VALID,33,VALID,0.674609,
2012-06-04, 01:06:04,VALID,998.51,VALID,0,VALID,88.5417,VALID,0,VALID,24.8527,VALID,33,VALID,0.758203,
2012-06-04, 01:07:04,VALID,998.504,VALID,0,VALID,88.8698,VALID,0,VALID,24.8527,VALID,33,VALID,0.942578,
2012-06-04, 01:08:04,VALID,998.492,VALID,0,VALID,89.2284,VALID,0,VALID,24.8136,VALID,33,VALID,0.873438,
2012-06-04, 01:09:04,VALID,998.5,VALID,0,VALID,89.3734,VALID,0,VALID,24.7941,VALID,25,VALID,0.921094,
2012-06-04, 01:10:04,VALID,998.475,VALID,0,VALID,89.7014,VALID,0,VALID,24.7746,VALID,25,VALID,0.504297,
2012-06-04, 01:11:04,VALID,998.486,VALID,0,VALID,90.0524,VALID,0,VALID,24.7337,VALID,25,VALID,0.687109,
2012-06-04, 01:12:04,VALID,998.48,VALID,0,VALID,90.1363,VALID,0,VALID,24.6946,VALID,25,VALID,1.19805,
2012-06-04, 01:13:04,VALID,998.482,VALID,0,VALID,90.2889,VALID,0,VALID,24.677,VALID,25,VALID,1.25977,
2012-06-04, 01:14:04,VALID,998.492,VALID,0,VALID,90.4491,VALID,0,VALID,24.6556,VALID,26,VALID,0.996484,
2012-06-04, 01:15:04,VALID,998.48,VALID,0,VALID,90.6933,VALID,0,VALID,24.638,VALID,39,VALID,0.985937,
2012-06-04, 01:16:04,VALID,998.477,VALID,0,VALID,90.7467,VALID,0,VALID,24.5989,VALID,40,VALID,1.27344,
2012-06-04, 01:17:04,VALID,998.53,VALID,0,VALID,90.7162,VALID,0,VALID,24.5775,VALID,38,VALID,1.00039,
2012-06-04, 01:18:04,VALID,998.526,VALID,0,VALID,90.8459,VALID,0,VALID,24.5989,VALID,38,VALID,0.682031,
2012-06-04, 01:19:04,VALID,998.547,VALID,0,VALID,91.0748,VALID,0,VALID,24.5989,VALID,35,VALID,0.633984,
2012-06-04, 01:20:04,VALID,998.546,VALID,0,VALID,91.1663,VALID,0,VALID,24.5385,VALID,35,VALID,0.732031,
2012-06-04, 01:21:04,VALID,998.511,VALID,0,VALID,91.0214,VALID,0,VALID,24.5385,VALID,25,VALID,0.79375,
2012-06-04, 01:22:04,VALID,998.52,VALID,0,VALID,90.8154,VALID,0,VALID,24.5599,VALID,19,VALID,0.805469,
2012-06-04, 01:23:04,VALID,998.504,VALID,0,VALID,90.6857,VALID,0,VALID,24.5599,VALID,2,VALID,0.715625,
2012-06-04, 01:24:04,VALID,998.507,VALID,0,VALID,90.4568,VALID,0,VALID,24.5794,VALID,2,VALID,0.606641,
2012-06-04, 01:25:04,VALID,998.482,VALID,0,VALID,90.3118,VALID,0,VALID,24.5989,VALID,2,VALID,0.715234,
2012-06-04, 01:26:04,VALID,998.469,VALID,0,VALID,89.8998,VALID,0,VALID,24.5989,VALID,352,VALID,0.726172,
2012-06-04, 01:27:04,VALID,998.434,VALID,0,VALID,89.6099,VALID,0,VALID,24.6184,VALID,352,VALID,0.505859,
2012-06-04, 01:28:04,VALID,998.426,VALID,0,VALID,89.3657,VALID,0,VALID,24.638,VALID,352,VALID,0.284375,
2012-06-04, 01:29:04,VALID,998.408,VALID,0,VALID,89.3352,VALID,0,VALID,24.6361,VALID,352,VALID,0.4125,
2012-06-04, 01:30:04,VALID,998.379,VALID,0,VALID,88.9843,VALID,0,VALID,24.6575,VALID,352,VALID,0.536328,
2012-06-04, 01:31:04,VALID,998.409,VALID,0,VALID,88.7477,VALID,0,VALID,24.6965,VALID,352,VALID,0.600781,
2012-06-04, 01:32:04,VALID,998.377,VALID,0,VALID,88.6333,VALID,0,VALID,24.716,VALID,352,VALID,0.428906,
2012-06-04, 01:33:04,VALID,998.392,VALID,0,VALID,88.6638,VALID,0,VALID,24.7356,VALID,352,VALID,0.592578,
2012-06-04, 01:34:04,VALID,998.403,VALID,0,VALID,88.5417,VALID,0,VALID,24.7356,VALID,352,VALID,0.65,
2012-06-04, 01:35:04,VALID,998.383,VALID,0,VALID,88.7477,VALID,0,VALID,24.7356,VALID,352,VALID,0.345703,
2012-06-04, 01:36:04,VALID,998.411,VALID,0,VALID,89.2132,VALID,0,VALID,24.7337,VALID,352,VALID,0.3125,
2012-06-04, 01:37:04,VALID,998.395,VALID,0,VALID,88.8317,VALID,0,VALID,24.716,VALID,352,VALID,0.247266,
2012-06-04, 01:38:04,VALID,998.393,VALID,0,VALID,89.1216,VALID,0,VALID,24.6965,VALID,352,VALID,0.330859,
2012-06-04, 01:39:04,VALID,998.391,VALID,0,VALID,88.7554,VALID,0,VALID,24.6965,VALID,352,VALID,0.478516,
2012-06-04, 01:40:04,VALID,998.425,VALID,0,VALID,88.9385,VALID,0,VALID,24.716,VALID,352,VALID,0.207422,
2012-06-04, 01:41:04,VALID,998.405,VALID,0,VALID,89.1903,VALID,0,VALID,24.6965,VALID,352,VALID,0.246484,
2012-06-04, 01:42:04,VALID,998.381,VALID,0,VALID,89.7396,VALID,0,VALID,24.6965,VALID,352,VALID,0.221094,
2012-06-04, 01:43:04,VALID,998.353,VALID,0,VALID,89.587,VALID,0,VALID,24.6575,VALID,352,VALID,0.398438,
2012-06-04, 01:44:04,VALID,998.381,VALID,0,VALID,89.3505,VALID,0,VALID,24.6184,VALID,352,VALID,0.480469,
2012-06-04, 01:45:04,VALID,998.382,VALID,0,VALID,89.175,VALID,0,VALID,24.6184,VALID,352,VALID,0.308594,
2012-06-04, 01:46:04,VALID,998.372,VALID,0,VALID,89.0987,VALID,0,VALID,24.6184,VALID,352,VALID,0.289453,
2012-06-04, 01:47:04,VALID,998.395,VALID,0,VALID,88.908,VALID,0,VALID,24.5989,VALID,352,VALID,0.225391,
2012-06-04, 01:48:04,VALID,998.397,VALID,0,VALID,88.5723,VALID,0,VALID,24.5989,VALID,352,VALID,0.257031,
2012-06-04, 01:49:04,VALID,998.403,VALID,0,VALID,87.2218,VALID,0,VALID,24.638,VALID,146,VALID,0.867969,
2012-06-04, 01:50:04,VALID,998.383,VALID,0,VALID,85.5357,VALID,0,VALID,24.7551,VALID,134,VALID,1.07969,
2012-06-04, 01:51:04,VALID,998.393,VALID,0,VALID,84.17,VALID,0,VALID,24.9308,VALID,133,VALID,1.32969,
2012-06-04, 01:52:04,VALID,998.421,VALID,0,VALID,83.1476,VALID,0,VALID,25.0869,VALID,141,VALID,1.62852,
2012-06-04, 01:53:04,VALID,998.409,VALID,0,VALID,82.1863,VALID,0,VALID,25.2236,VALID,137,VALID,1.61406,
2012-06-04, 01:54:04,VALID,998.374,VALID,0,VALID,82.0108,VALID,0,VALID,25.3212,VALID,126,VALID,1.4207,
2012-06-04, 01:55:04,VALID,998.409,VALID,0,VALID,81.2783,VALID,0,VALID,25.3993,VALID,143,VALID,1.40156,
2012-06-04, 01:56:04,VALID,998.368,VALID,0,VALID,80.8816,VALID,0,VALID,25.4578,VALID,144,VALID,1.41797,
2012-06-04, 01:57:04,VALID,998.35,VALID,0,VALID,80.5764,VALID,0,VALID,25.4969,VALID,140,VALID,1.61172,
2012-06-04, 01:58:04,VALID,998.373,VALID,0,VALID,80.2865,VALID,0,VALID,25.5359,VALID,147,VALID,1.36797,
2012-06-04, 01:59:04,VALID,998.386,VALID,0,VALID,79.9813,VALID,0,VALID,25.614,VALID,140,VALID,2.14687,
2012-06-04, 02:00:04,VALID,998.357,VALID,0,VALID,79.6685,VALID,0,VALID,25.6336,VALID,135,VALID,1.60391,
2012-06-04, 02:01:04,VALID,998.359,VALID,0,VALID,79.5083,VALID,0,VALID,25.6531,VALID,137,VALID,1.77813,
2012-06-04, 02:02:04,VALID,998.355,VALID,0,VALID,79.4549,VALID,0,VALID,25.6531,VALID,148,VALID,1.85,
2012-06-04, 02:03:04,VALID,998.32,VALID,0,VALID,79.1115,VALID,0,VALID,25.7116,VALID,155,VALID,2.11641,
2012-06-04, 02:04:04,VALID,998.311,VALID,0,VALID,78.9589,VALID,0,VALID,25.7702,VALID,150,VALID,1.81953,
2012-06-04, 02:05:04,VALID,998.306,VALID,0,VALID,79.1573,VALID,0,VALID,25.7487,VALID,141,VALID,1.84531,
2012-06-04, 02:06:04,VALID,998.252,VALID,0,VALID,79.02,VALID,0,VALID,25.7702,VALID,137,VALID,2.16484,
2012-06-04, 02:07:04,VALID,998.213,VALID,0,VALID,78.7987,VALID,0,VALID,25.7702,VALID,146,VALID,2.53594,
2012-06-04, 02:08:04,VALID,998.183,VALID,0,VALID,78.6614,VALID,0,VALID,25.7683,VALID,139,VALID,2.3375,
2012-06-04, 02:09:04,VALID,998.167,VALID,0,VALID,78.5393,VALID,0,VALID,25.8288,VALID,149,VALID,2.04961,
2012-06-04, 02:10:04,VALID,998.163,VALID,0,VALID,78.7911,VALID,0,VALID,25.8073,VALID,159,VALID,1.75039,
2012-06-04, 02:11:04,VALID,998.129,VALID,0,VALID,79.0047,VALID,0,VALID,25.8288,VALID,159,VALID,1.29766,
2012-06-04, 02:12:04,VALID,998.166,VALID,0,VALID,79.1115,VALID,0,VALID,25.8093,VALID,158,VALID,1.83203,
2012-06-04, 02:13:04,VALID,998.133,VALID,0,VALID,79.1649,VALID,0,VALID,25.8093,VALID,171,VALID,1.97695,
2012-06-04, 02:14:04,VALID,998.152,VALID,0,VALID,78.8292,VALID,0,VALID,25.8483,VALID,165,VALID,2.39414,
2012-06-04, 02:15:04,VALID,998.132,VALID,0,VALID,78.9208,VALID,0,VALID,25.8874,VALID,156,VALID,1.89688,
2012-06-04, 02:16:04,VALID,998.134,VALID,0,VALID,78.9742,VALID,0,VALID,25.8483,VALID,156,VALID,2.05742,
2012-06-04, 02:17:04,VALID,998.172,VALID,0,VALID,79.3938,VALID,0,VALID,25.8679,VALID,145,VALID,2.15742,
2012-06-04, 02:18:04,VALID,998.165,VALID,0,VALID,79.5846,VALID,0,VALID,25.8679,VALID,147,VALID,1.45742,
2012-06-04, 02:19:04,VALID,998.127,VALID,0,VALID,79.4167,VALID,0,VALID,25.8483,VALID,158,VALID,1.73125,
2012-06-04, 02:20:04,VALID,998.126,VALID,0,VALID,79.699,VALID,0,VALID,25.8483,VALID,154,VALID,1.67383,
2012-06-04, 02:21:04,VALID,998.123,VALID,0,VALID,79.7906,VALID,0,VALID,25.8093,VALID,139,VALID,2.06641,
2012-06-04, 02:22:04,VALID,998.109,VALID,0,VALID,79.9584,VALID,0,VALID,25.8308,VALID,149,VALID,1.87305,
2012-06-04, 02:23:04,VALID,998.11,VALID,0,VALID,79.9355,VALID,0,VALID,25.8093,VALID,148,VALID,1.73516,
2012-06-04, 02:24:04,VALID,998.081,VALID,0,VALID,80.0957,VALID,0,VALID,25.8288,VALID,152,VALID,1.2332,
2012-06-04, 02:25:04,VALID,998.107,VALID,0,VALID,79.9889,VALID,0,VALID,25.8288,VALID,155,VALID,1.78086,
2012-06-04, 02:26:04,VALID,998.06,VALID,0,VALID,80.1034,VALID,0,VALID,25.8288,VALID,150,VALID,1.88008,
2012-06-04, 02:27:04,VALID,998.03,VALID,0,VALID,80.3628,VALID,0,VALID,25.8288,VALID,155,VALID,1.42383,
2012-06-04, 02:28:04,VALID,998.009,VALID,0,VALID,80.3704,VALID,0,VALID,25.8093,VALID,157,VALID,1.50547,
2012-06-04, 02:29:04,VALID,998.003,VALID,0,VALID,79.3099,VALID,0,VALID,25.8093,VALID,136,VALID,1.28711,
2012-06-04, 02:30:04,VALID,997.971,VALID,0,VALID,78.8292,VALID,0,VALID,25.7897,VALID,153,VALID,1.57187,
2012-06-04, 02:31:04,VALID,997.966,VALID,0,VALID,78.73,VALID,0,VALID,25.7507,VALID,161,VALID,1.27109,
2012-06-04, 02:32:04,VALID,997.945,VALID,0,VALID,78.7377,VALID,0,VALID,25.7487,VALID,148,VALID,1.40156,
2012-06-04, 02:33:04,VALID,997.927,VALID,0,VALID,78.8826,VALID,0,VALID,25.7487,VALID,134,VALID,1.39922,
2012-06-04, 02:34:04,VALID,997.909,VALID,0,VALID,78.9589,VALID,0,VALID,25.7097,VALID,135,VALID,1.44727,
2012-06-04, 02:35:04,VALID,997.902,VALID,0,VALID,79.1649,VALID,0.104696,VALID,25.6902,VALID,130,VALID,1.65937,
2012-06-04, 02:36:04,VALID,997.902,VALID,0,VALID,79.4396,VALID,0,VALID,25.6297,VALID,139,VALID,1.31992,
2012-06-04, 02:37:04,VALID,997.867,VALID,0,VALID,79.4854,VALID,0.104696,VALID,25.6101,VALID,139,VALID,1.3375,
2012-06-04, 02:38:04,VALID,997.841,VALID,0,VALID,79.5617,VALID,0,VALID,25.5926,VALID,142,VALID,1.06055,
2012-06-04, 02:39:04,VALID,997.822,VALID,0,VALID,79.2412,VALID,0,VALID,25.6121,VALID,128,VALID,1.89844,
2012-06-04, 02:40:04,VALID,997.824,VALID,0,VALID,79.4549,VALID,0,VALID,25.6316,VALID,142,VALID,1.24219,
2012-06-04, 02:41:04,VALID,997.826,VALID,0,VALID,79.1573,VALID,0,VALID,25.6511,VALID,138,VALID,1.77852,
2012-06-04, 02:42:04,VALID,997.87,VALID,0,VALID,79.2107,VALID,0,VALID,25.6316,VALID,151,VALID,1.43906,
2012-06-04, 02:43:04,VALID,997.85,VALID,0,VALID,79.2641,VALID,0,VALID,25.6492,VALID,139,VALID,1.67109,
2012-06-04, 02:44:04,VALID,997.843,VALID,0,VALID,79.3175,VALID,0.104696,VALID,25.6511,VALID,130,VALID,1.54844,
2012-06-04, 02:45:04,VALID,997.842,VALID,0,VALID,79.554,VALID,0,VALID,25.6316,VALID,140,VALID,1.03281,
2012-06-04, 02:46:04,VALID,997.849,VALID,0,VALID,79.5922,VALID,0,VALID,25.614,VALID,131,VALID,1.1375,
2012-06-04, 02:47:04,VALID,997.845,VALID,0,VALID,79.5693,VALID,0,VALID,25.5535,VALID,148,VALID,1.66328,
2012-06-04, 02:48:04,VALID,997.848,VALID,0,VALID,79.6761,VALID,0,VALID,25.5945,VALID,146,VALID,1.21406,
2012-06-04, 02:49:04,VALID,997.845,VALID,0,VALID,79.554,VALID,0,VALID,25.5945,VALID,142,VALID,1.53945,
2012-06-04, 02:50:04,VALID,997.846,VALID,0,VALID,79.5083,VALID,0,VALID,25.614,VALID,127,VALID,1.34453,
2012-06-04, 02:51:04,VALID,997.862,VALID,0,VALID,79.6914,VALID,0,VALID,25.575,VALID,124,VALID,0.849609,
2012-06-04, 02:52:04,VALID,997.851,VALID,0,VALID,79.6838,VALID,0,VALID,25.5555,VALID,120,VALID,0.863672,
2012-06-04, 02:53:04,VALID,997.843,VALID,0,VALID,79.8363,VALID,0,VALID,25.5164,VALID,127,VALID,0.710547,
2012-06-04, 02:54:04,VALID,997.843,VALID,0,VALID,79.8363,VALID,0,VALID,25.4774,VALID,129,VALID,0.837109,
2012-06-04, 02:55:04,VALID,997.782,VALID,0,VALID,80.1721,VALID,0,VALID,25.4578,VALID,127,VALID,0.524609,
2012-06-04, 02:56:04,VALID,997.796,VALID,0,VALID,80.4772,VALID,0,VALID,25.3993,VALID,113,VALID,1.05039,
2012-06-04, 02:57:04,VALID,997.811,VALID,0,VALID,80.8435,VALID,0,VALID,25.3602,VALID,112,VALID,1.08477,
2012-06-04, 02:58:04,VALID,997.792,VALID,0,VALID,81.2478,VALID,0,VALID,25.3017,VALID,109,VALID,1.00781,
2012-06-04, 02:59:04,VALID,997.812,VALID,0,VALID,81.3623,VALID,0,VALID,25.2821,VALID,108,VALID,1.0832,
2012-06-04, 03:00:04,VALID,997.807,VALID,0,VALID,81.408,VALID,0,VALID,25.2431,VALID,99,VALID,1.05703,
2012-06-04, 03:01:04,VALID,997.765,VALID,0,VALID,81.553,VALID,0,VALID,25.204,VALID,113,VALID,1.20195,
2012-06-04, 03:02:04,VALID,997.743,VALID,0,VALID,81.492,VALID,0,VALID,25.165,VALID,119,VALID,1.66055,
2012-06-04, 03:03:04,VALID,997.762,VALID,0,VALID,81.6293,VALID,0,VALID,25.1845,VALID,123,VALID,1.15781,
2012-06-04, 03:04:04,VALID,997.756,VALID,0,VALID,81.7743,VALID,0,VALID,25.1845,VALID,124,VALID,1.33789,
2012-06-04, 03:05:04,VALID,997.743,VALID,0,VALID,81.492,VALID,0,VALID,25.1845,VALID,129,VALID,1.23047,
2012-06-04, 03:06:04,VALID,997.751,VALID,0,VALID,81.3165,VALID,0,VALID,25.1845,VALID,125,VALID,1.3293,
2012-06-04, 03:07:04,VALID,997.758,VALID,0,VALID,81.2707,VALID,0,VALID,25.204,VALID,126,VALID,1.44961,
2012-06-04, 03:08:04,VALID,997.767,VALID,0,VALID,81.1181,VALID,0,VALID,25.204,VALID,129,VALID,1.18008,
2012-06-04, 03:09:04,VALID,997.761,VALID,0,VALID,80.9732,VALID,0,VALID,25.1845,VALID,141,VALID,0.921484,
2012-06-04, 03:10:04,VALID,997.747,VALID,0,VALID,80.9045,VALID,0,VALID,25.1845,VALID,151,VALID,0.904297,
2012-06-04, 03:11:04,VALID,997.777,VALID,0,VALID,80.7061,VALID,0,VALID,25.1845,VALID,152,VALID,1.45977,
2012-06-04, 03:12:04,VALID,997.742,VALID,0,VALID,80.5688,VALID,0,VALID,25.2236,VALID,157,VALID,1.57305,
2012-06-04, 03:13:04,VALID,997.739,VALID,0,VALID,80.3857,VALID,0,VALID,25.2821,VALID,137,VALID,1.17148,
2012-06-04, 03:14:04,VALID,997.753,VALID,0,VALID,80.256,VALID,0,VALID,25.2821,VALID,144,VALID,1.41445,
2012-06-04, 03:15:04,VALID,997.76,VALID,0,VALID,80.111,VALID,0,VALID,25.3017,VALID,137,VALID,1.16953,
2012-06-04, 03:16:04,VALID,997.727,VALID,0,VALID,80.1721,VALID,0,VALID,25.3017,VALID,128,VALID,1.18867,
2012-06-04, 03:17:04,VALID,997.721,VALID,0,VALID,79.8058,VALID,0,VALID,25.2821,VALID,141,VALID,1.71484,
2012-06-04, 03:18:04,VALID,997.75,VALID,0,VALID,79.8898,VALID,0,VALID,25.3193,VALID,135,VALID,1.3918,
2012-06-04, 03:19:04,VALID,997.758,VALID,0,VALID,79.9737,VALID,0,VALID,25.2802,VALID,140,VALID,1.1332,
2012-06-04, 03:20:04,VALID,997.787,VALID,0,VALID,80.05,VALID,0,VALID,25.2802,VALID,153,VALID,1.21523,
2012-06-04, 03:21:04,VALID,997.763,VALID,0,VALID,79.9584,VALID,0,VALID,25.2607,VALID,127,VALID,1.09844,
2012-06-04, 03:22:04,VALID,997.737,VALID,0,VALID,79.9126,VALID,0,VALID,25.2412,VALID,123,VALID,1.10195,
2012-06-04, 03:23:04,VALID,997.739,VALID,0,VALID,80.1186,VALID,0.104696,VALID,25.2217,VALID,126,VALID,1.62969,
2012-06-04, 03:24:04,VALID,997.708,VALID,0,VALID,80.0347,VALID,0.104696,VALID,25.2412,VALID,120,VALID,1.65,
2012-06-04, 03:25:04,VALID,997.708,VALID,0,VALID,79.9508,VALID,0.104696,VALID,25.2607,VALID,122,VALID,1.5543,
2012-06-04, 03:26:04,VALID,997.662,VALID,0,VALID,80.1492,VALID,0.104696,VALID,25.2607,VALID,113,VALID,1.0957,
2012-06-04, 03:27:04,VALID,997.634,VALID,0,VALID,80.2407,VALID,0.104696,VALID,25.2217,VALID,125,VALID,1.02188,
2012-06-04, 03:28:04,VALID,997.629,VALID,0,VALID,80.1263,VALID,0,VALID,25.1826,VALID,119,VALID,1.71133,
2012-06-04, 03:29:04,VALID,997.652,VALID,0,VALID,80.317,VALID,0.104696,VALID,25.2217,VALID,112,VALID,1.6043,
2012-06-04, 03:30:04,VALID,997.638,VALID,0,VALID,80.5383,VALID,0.104696,VALID,25.1612,VALID,108,VALID,1.20586,
2012-06-04, 03:31:04,VALID,997.644,VALID,0,VALID,81.1792,VALID,0.104696,VALID,25.1026,VALID,99,VALID,1.38906,
2012-06-04, 03:32:04,VALID,997.652,VALID,0,VALID,81.7666,VALID,0,VALID,25.046,VALID,111,VALID,1.06719,
2012-06-04, 03:33:04,VALID,997.628,VALID,0,VALID,81.8506,VALID,0,VALID,24.9698,VALID,141,VALID,1.2582,
2012-06-04, 03:34:04,VALID,997.651,VALID,0,VALID,81.7132,VALID,0,VALID,24.9893,VALID,116,VALID,1.28359,
2012-06-04, 03:35:04,VALID,997.627,VALID,0,VALID,81.9726,VALID,0,VALID,24.9874,VALID,112,VALID,0.938281,
2012-06-04, 03:36:04,VALID,997.636,VALID,0,VALID,82.2092,VALID,0,VALID,24.9893,VALID,88,VALID,1.31641,
2012-06-04, 03:37:04,VALID,997.65,VALID,0,VALID,82.3999,VALID,0,VALID,24.9289,VALID,127,VALID,0.958203,
2012-06-04, 03:38:04,VALID,997.645,VALID,0,VALID,80.2789,VALID,0,VALID,24.9503,VALID,115,VALID,1.13516,
2012-06-04, 03:39:04,VALID,997.657,VALID,0,VALID,80.1721,VALID,0,VALID,25.0655,VALID,122,VALID,1.78047,
2012-06-04, 03:40:04,VALID,997.66,VALID,0,VALID,80.5306,VALID,0,VALID,25.1455,VALID,116,VALID,1.30117,
2012-06-04, 03:41:04,VALID,997.667,VALID,0,VALID,80.7672,VALID,0,VALID,25.165,VALID,117,VALID,1.23867,
2012-06-04, 03:42:05,VALID,997.665,VALID,0,VALID,80.8282,VALID,0,VALID,25.126,VALID,116,VALID,1.60352,
2012-06-04, 03:43:05,VALID,997.687,VALID,0,VALID,80.9198,VALID,0,VALID,25.1064,VALID,115,VALID,1.5043,
2012-06-04, 03:44:05,VALID,997.672,VALID,0,VALID,81.1868,VALID,0,VALID,25.0479,VALID,116,VALID,1.33398,
2012-06-04, 03:45:05,VALID,997.717,VALID,0,VALID,81.6674,VALID,0,VALID,25.0284,VALID,121,VALID,1.25039,